Location: ??????
(42.0089°N, 44.3281°E)
Time: 17:44:49
(UTC+00:00)

Okean 1-7 Rocket - Pass Details

Date: 04 June 2022
Orbit: 616 x 648 km, 82.5° (Epoch: 01 July)

Event Time Altitude Azimuth Distance (km) Brightness Sun altitude
Exits shadow 23:55:17 22° 206° (SSW) 1,372 4.7 -14.0°
Maximum altitude 23:58:01 59° 280° (W) 717 3.7 -13.6°
Drops below altitude 10° 00:02:21 10° 0° (N) 1,988 6.9 -13.1°
Sets 00:04:37 0° 5° (N) 2,898 7.9 -12.8°
